Home > Weather > Vevay > Past weeks

Flag for USA Past Weather in Vevay, Indiana, USA — Yesterday and Last 2 Weeks

Now
81 °F

Broken clouds.


Feels Like: 81 °F
Forecast: 64 / 84 °F
Wind: 13 mph from Northwest

Location: Cincinnati / Northern Kentucky International Airport

Current Time: Jul 1, 2016 at 6:36:11 PM

Latest Report: Jul 1, 2016 at 5:52 PM


Visibility: 10 mi

Pressure: 29.97 "Hg

Humidity: 47%

Dew Point: 59 °F

Location of VevayLocation

Past Weather in Vevay — Graph

°F

Vevay Temperature Yesterday

Maximum temperature yesterday: 81 °F (at 2:52 PM)
Minimum temperature yesterday: 56 °F (at 6:52 AM)
Average temperature yesterday: 70 °F

High & Low Weather Summary for the Past Weeks

 TemperatureHumidityPressure
High91 °F (Jun 26, 4:52 PM)100% (Jun 23, 5:52 AM)30.30 "Hg (Jun 23, 5:52 AM)
Low56 °F (Jun 30, 6:52 AM)26% (Jun 21, 3:52 PM)29.73 "Hg (Jun 16, 4:52 PM)
Average76 °F67%30.02 "Hg
* Reported Jun 16 4:52 PM — Jul 1 4:52 PM, Vevay, Weather by CustomWeather, © 2016

Note: Actual official high and low records may vary slightly from our data, if they occured in-between our weather recording intervals... More about our weather records

Advertising

Vevay Weather History for the Previous 24 Hours

Scroll right to see more
 ConditionsComfort  
Time TempWeatherWind HumidityBarometerVisibility
4:52 PM
Fri, Jul 1
81 °FScattered clouds.9 mph49%29.97 "Hg10 mi
3:52 PM82 °FBroken clouds.10 mph49%29.97 "Hg10 mi
2:52 PM81 °FBroken clouds.9 mph53%29.97 "Hg10 mi
1:52 PM80 °FBroken clouds.12 mph58%29.97 "Hg10 mi
12:52 PM79 °FBroken clouds.8 mph60%29.97 "Hg10 mi
11:52 AM77 °FBroken clouds.8 mph66%29.96 "Hg10 mi
10:52 AM72 °FMostly cloudy.6 mph76%29.97 "Hg10 mi
9:52 AM72 °FMostly cloudy.6 mph68%29.95 "Hg10 mi
8:52 AM70 °FMostly cloudy.5 mph71%29.93 "Hg10 mi
7:52 AM69 °FCloudy.8 mph70%29.92 "Hg10 mi
6:52 AM67 °FPassing clouds.7 mph73%29.92 "Hg10 mi
5:52 AM67 °FOvercast.6 mph76%29.92 "Hg10 mi
4:52 AM66 °FOvercast.8 mph78%29.91 "Hg10 mi
3:52 AM65 °FPartly cloudy.7 mph78%29.92 "Hg10 mi
2:52 AM65 °FOvercast.5 mph78%29.92 "Hg10 mi
1:52 AM65 °FMostly cloudy.5 mph78%29.94 "Hg10 mi
12:52 AM68 °FPassing clouds.3 mph65%29.96 "Hg10 mi
11:52 PM
Thu, Jun 30
70 °FOvercast.3 mph61%29.96 "Hg10 mi
10:52 PM68 °FPassing clouds.3 mph63%29.97 "Hg10 mi
9:52 PM71 °FScattered clouds.3 mph55%29.97 "Hg10 mi
8:52 PM72 °FScattered clouds.3 mph55%29.96 "Hg10 mi
7:52 PM77 °FPartly sunny.6 mph44%29.96 "Hg10 mi
6:52 PM78 °FBroken clouds.5 mph45%29.96 "Hg10 mi
Weather by CustomWeather, © 2016

See weather overviewHow to use our weather pages